Location: Olsztyn
(53.7767°N, 20.4765°E)
Time: 07:07:34
(UTC+01:00)

Transit 4A - Pass Details

Date: 09 October 2022
Orbit: 871 x 972 km, 66.8° (Epoch: 06 December)

Event Time Altitude Azimuth Distance (km) Brightness Sun altitude
Exits shadow 23:52:30 13° 33° (NNE) 2,325 10.3 -42.3°
Drops below altitude 10° 23:53:15 10° 38° (NE) 2,561 10.5 -42.3°
Sets 23:55:58 0° 47° (NE) 3,491 11.2 -42.4°
